Tracking 28365 objects as of 6-Dec-2023
HD Live streaming from Space Station
objects crossing your sky now

SAUDISAT 3

Track SAUDISAT 3 now!
10-day predictions
SAUDISAT 3 is classified as:


NORAD ID: 31118
Int'l Code: 2007-012B
Perigee: 658.8 km
Apogee: 678.1 km
Inclination: 98.0 °
Period: 98.0 minutes
Semi major axis: 7039 km
RCS: 0.633 m2 (medium)
Launch date: April 17, 2007
Source: Saudi Arabia (SAUD)
Launch site: TYURATAM MISSILE AND SPACE COMPLEX (TTMTR)
Your satellite tracking list
Your tracking list is empty




NASA's NSSDC Master Catalog

Two Line Element Set (TLE):
1 31118U 07012B   23339.83819487  .00000658  00000-0  11807-3 0  9991
2 31118  98.0343 281.1380 0013654 290.9396  69.0349 14.69927386891883
Source of the keplerian elements: AFSPC